sat.trackr.live / text

‹ back to catalog

STARLINK-2228

NORAD 48576 · 2021-041Z

PAYLOAD ACTIVE UNKNOWN

§ Identity

Operator
Country
US
Launch date
2021-05-15
Launch site
AFETR
Launch vehicle
Mass (kg)
RCS (m²)

Purposes: comms

External: N2YO · Heavens-Above · Gunter

§ Orbital elements

Epoch: 2026-09-19T16:59:10.382784Z

Period
94.01 min
Inclination
53.1588°
Eccentricity
0.0001573
Mean motion
15.31696779 rev/d
Perigee alt
469.7 km
Apogee alt
471.8 km
Semi-major
6,848.9 km
B*
3.9969e-6
RAAN
278.1387°
Arg perigee
71.2192°
Mean anomaly
288.8980°
Rev number
29,537

§ Raw data

STARLINK-22281 48576U 21041Z   26262.70775906 -.00000241  00000+0  39969-5 0  99952 48576  53.1588 278.1387 0001573  71.2192 288.8980 15.31696779295379

JSON: /api/v1/satellites/48576 · /tle

For live sub-satellite position, see the globe view (requires WebGL).

§ Visibility from observer

Set your observer location to see the next 7 days of passes ≥ 10°. The values pass through the URL so the page stays shareable.

No JS? Fill the form by hand. The geolocation button needs JavaScript.